Flag for Uzbekistan Weather past 2 weeks in Tashkent, Uzbekistan

Now
90 °F

Passing clouds.


Feels Like: 86 °F
Forecast: 78 / 101 °F
Wind: 7 mph from Southwest

Location: Tashkent

Current Time: Jul 31, 2015 at 12:39:28 PM

Latest Report: Jul 31, 2015 at 12:00 PM


Visibility: N/A

Pressure: 29.74 "Hg

Humidity: 24%

Dew point: 48 °F

Location of TashkentLocation

Historic Weather in Tashkent — Graph

°F

Tashkent temperature yesterday

Maximum temperature yesterday: 99 °F (at 4:00 PM)
Minimum temperature yesterday: 70 °F (at 3:30 AM)
Average temperature yesterday: 85 °F

Past Weeks' High & Low Weather Summary

 TemperatureHumidityPressure
High102 °F (Jul 16, 3:00 PM)62% (Jul 17, 5:00 AM)29.92 "Hg (Jul 17, 5:00 AM)
Low70 °F (Jul 26, 3:30 AM)8% (Jul 30, 4:00 PM)29.45 "Hg (Jul 16, 5:00 PM)
Average86 °F31%29.71 "Hg
* Reported Jul 16 11:00 AM — Jul 31 11:00 AM, Tashkent, Weather by CustomWeather, © 2015

Note: Actual official high and low records may vary slightly from our data, if they occured in-between our weather recording intervals... More about our weather records

Advertising

Tashkent weather history for previous 24 hours

 ConditionsComfort  
Time TempWeatherWind HumidityBarometerVisibility
11:00 AM
Fri, Jul 31
88 °FPassing clouds.7 mph25%29.74 "HgN/A
10:30 AM86 °FPassing clouds.9 mph29%29.74 "HgN/A
10:00 AM84 °FSunny.10 mph27%29.74 "Hg10 mi
9:30 AM82 °FSunny.13 mph28%29.74 "Hg10 mi
9:00 AM81 °FSunny.10 mph30%29.74 "Hg10 mi
8:30 AM81 °FPassing clouds.9 mph28%29.74 "HgN/A
8:00 AM79 °FSunny.9 mph30%29.74 "Hg10 mi
7:30 AM79 °FPassing clouds.6 mph30%29.74 "HgN/A
7:00 AM77 °FPassing clouds.3 mph32%29.74 "HgN/A
6:30 AM73 °FSunny.8 mph33%29.74 "Hg10 mi
6:00 AM70 °FSunny.10 mph40%29.74 "Hg10 mi
5:30 AM70 °FSunny.9 mph40%29.71 "Hg10 mi
5:00 AM72 °FClear.7 mph36%29.71 "Hg10 mi
4:30 AM72 °FClear.5 mph36%29.71 "Hg10 mi
4:00 AM70 °FClear.6 mph38%29.71 "Hg10 mi
3:30 AM72 °FClear.5 mph38%29.71 "Hg10 mi
3:00 AM72 °FClear.7 mph38%29.71 "Hg10 mi
2:00 AM73 °FClear.7 mph36%29.71 "Hg10 mi
1:30 AM72 °FClear.8 mph41%29.71 "Hg10 mi
1:00 AM73 °FClear.6 mph36%29.71 "Hg10 mi
12:30 AM79 °FPassing clouds.8 mph26%29.71 "HgN/A
12:00 AM82 °FPassing clouds.7 mph19%29.74 "HgN/A
11:30 PM
Thu, Jul 30
84 °FPassing clouds.8 mph16%29.74 "HgN/A
11:00 PM84 °FPassing clouds.7 mph19%29.74 "HgN/A
10:30 PM84 °FClear.5 mph23%29.74 "Hg10 mi
10:00 PM82 °FPassing clouds.3 mph28%29.74 "HgN/A
9:30 PM84 °FClear.1 mph27%29.74 "Hg10 mi
9:00 PM82 °FPassing clouds.5 mph28%29.74 "HgN/A
8:30 PM86 °FClear.8 mph24%29.74 "Hg10 mi
8:00 PM88 °FClear.7 mph19%29.71 "Hg10 mi
7:30 PM91 °FPassing clouds.7 mph12%29.71 "HgN/A
7:00 PM93 °FSunny.6 mph11%29.71 "Hg10 mi
6:30 PM95 °FPassing clouds.6 mph9%29.71 "HgN/A
6:00 PM99 °FSunny.2 mph8%29.71 "Hg10 mi
5:30 PM97 °FPassing clouds.6 mph8%29.71 "HgN/A
5:00 PM97 °FPassing clouds.6 mph8%29.71 "HgN/A
4:30 PM97 °FPassing clouds.7 mph8%29.74 "HgN/A
4:00 PM99 °FSunny.8 mph8%29.74 "Hg10 mi
3:30 PM97 °FSunny.7 mph9%29.74 "Hg10 mi
3:00 PM95 °FPassing clouds.8 mph10%29.74 "HgN/A
2:30 PM95 °FSunny.8 mph11%29.74 "Hg10 mi
2:00 PM95 °FPassing clouds.9 mph11%29.74 "HgN/A
1:30 PM93 °FPassing clouds.10 mph12%29.77 "HgN/A
1:00 PM93 °FSunny.6 mph15%29.77 "Hg10 mi
12:30 PM93 °FPassing clouds.8 mph15%29.77 "HgN/A
12:00 PM91 °FPassing clouds.9 mph16%29.77 "HgN/A
Weather by CustomWeather, © 2015

See weather overviewHow to use our weather pages